User: anonymous   Login
Location: Key Biscayne
(25.6930°N, 80.1630°W)
Time: 03:32:12
(UTC-05:00)
Language:

Tiangong 2 - Orbit

View from above orbital plane
View from above orbital plane
View from above satellite
View from above satellite

Ground track
Ground track

The orbit data is extracted from the following two-line orbital elements,

1 41765U 16057A   17322.03501558  .00005597  00000-0  73168-4 0  9999
2 41765  42.7832 160.7340 0003741 245.7588 253.8598 15.59524409 66990
Epoch (UTC): 18 November 2017 00:50:25
Eccentricity: 0.0003741
inclination: 42.7832°
perigee height: 386 km
apogee height: 391 km
right ascension of ascending node: 160.7340°
argument of perigee: 245.7588°
revolutions per day: 15.59524409
mean anomaly at epoch: 253.8598°
orbit number at epoch: 6699

The dashed part of the orbit path shows where the satellite is in the earth's shadow,  

DLR